Theta_e
344 351 362 363 362 362 362 362 363 364 363 364 364 363 363 363 363 363 363 363 362 359 358 356 356 357 356 357 358 358 359 360 359 360 361 361 359 360 360 361 359 355 360
347 355 362 364 363 362 363 363 363 364 364 362 362 363 362 362 362 362 362 361 361 360 358 358 359 359 357 355 356 357 359 360 361 358 360 362 362 360 359 360 360 356 359
350 357 360 365 364 362 364 364 364 363 362 363 363 363 362 362 362 362 362 361 363 360 358 358 358 358 357 355 357 358 358 358 359 355 360 352 354 359 361 360 360 359 358
355 357 358 364 364 362 363 364 364 362 363 363 363 362 361 362 361 361 362 362 361 360 358 358 358 357 357 356 355 356 356 355 357 357 348 348 353 360 359 359 359 359 358
354 357 359 365 365 362 362 363 363 362 362 362 362 362 362 362 362 363 361 362 360 360 359 358 357 357 357 357 356 355 355 356 354 352 349 347 347 356 359 358 358 358 358
355 359 364 364 362 363 363 362 364 363 363 362 362 362 362 362 360 360 361 361 360 360 359 358 357 357 357 357 356 356 355 357 355 350 350 354 350 358 359 358 358 358 357
354 359 360 365 365 364 362 363 362 363 362 362 362 362 363 363 362 361 360 360 360 360 359 358 357 355 355 356 357 357 355 355 351 349 350 351 352 360 359 358 358 358 357
355 357 359 365 366 365 363 362 364 362 361 361 362 362 363 363 364 362 361 360 360 359 359 358 358 357 357 356 357 356 356 359 351 349 350 351 359 359 357 357 357 357 357
356 356 356 357 359 364 364 364 362 361 361 361 361 361 361 361 362 362 362 361 360 359 358 358 358 358 357 356 356 357 360 357 349 351 353 353 360 360 358 358 357 358 357
353 354 352 352 353 356 357 364 362 362 362 361 361 361 360 359 359 360 362 363 359 358 358 358 358 358 357 357 356 357 360 359 348 347 351 355 360 358 360 358 357 358 357
351 352 352 351 352 353 356 359 362 362 362 362 361 361 351 350 352 356 359 360 359 358 358 357 357 358 358 357 357 357 351 347 348 349 351 358 360 358 358 359 358 358 356
346 349 350 350 350 351 357 353 352 355 356 355 350 342 345 348 351 356 358 361 360 360 360 361 359 357 356 350 351 357 349 349 348 349 352 360 360 357 357 358 357 357 357
347 349 348 349 349 349 350 350 350 351 352 351 343 341 345 349 343 345 350 351 351 357 351 355 354 353 353 350 350 348 350 348 347 348 356 360 360 357 355 356 356 357 356
346 347 347 348 348 346 349 350 350 350 350 350 337 340 346 343 345 344 349 346 349 353 351 353 349 350 350 348 350 347 347 345 344 348 355 361 361 357 356 352 353 354 354
344 344 345 347 348 347 347 346 347 347 349 351 341 340 347 348 345 342 338 341 343 353 352 348 349 350 345 345 346 349 344 344 345 351 352 362 361 361 357 355 353 352 354
342 341 344 344 347 347 345 342 345 346 346 351 347 341 348 349 346 346 344 346 347 349 352 349 347 345 345 344 336 340 344 343 343 350 352 355 362 361 360 357 356 356 355
341 341 341 343 347 346 344 344 346 347 346 351 354 350 353 350 349 347 347 346 349 352 350 349 347 346 341 344 342 340 344 342 341 344 350 349 357 361 360 358 359 358 356
343 338 341 345 348 347 348 346 349 344 342 347 352 352 350 351 350 348 348 348 349 351 351 347 344 342 339 342 341 337 340 345 343 342 344 348 351 352 359 361 360 360 358
342 339 341 342 347 345 346 346 348 347 345 344 348 348 348 352 352 349 348 350 351 349 349 349 344 341 338 338 339 333 339 341 341 342 342 344 349 348 350 359 360 360 358
340 342 342 342 347 345 347 345 345 345 346 346 343 347 348 351 354 352 350 349 345 347 345 345 345 345 344 340 341 333 333 336 338 342 339 343 343 345 347 350 351 353 358
340 343 341 342 345 346 345 343 341 340 342 344 342 348 350 351 354 351 350 348 349 346 347 346 345 340 337 331 327 329 329 331 333 336 338 340 341 342 345 347 347 347 349
339 343 342 343 343 345 345 346 343 342 343 344 341 350 352 352 354 353 350 349 348 350 347 347 342 339 339 330 329 324 321 326 331 335 336 339 338 341 343 345 346 345 345
339 341 341 344 344 345 346 345 344 345 342 341 340 340 352 354 355 354 353 352 349 348 346 346 345 340 332 331 333 327 319 319 325 330 331 337 338 338 339 342 343 343 342
339 342 342 346 346 346 348 345 344 344 342 340 338 339 348 353 352 354 352 352 350 348 347 347 349 342 336 327 330 334 331 329 321 321 330 332 337 338 338 340 343 344 342
341 340 343 347 346 346 348 346 344 342 342 340 338 339 340 349 350 355 354 353 349 349 350 347 349 345 337 332 325 326 329 331 330 322 321 327 332 332 331 337 342 343 342
341 341 342 345 346 347 348 347 345 342 339 338 337 337 338 344 347 353 355 353 351 350 348 348 349 346 346 340 336 332 327 324 328 326 322 325 327 330 330 332 337 340 339
Wind_Speed
4 5 14 16 17 16 17 17 16 15 15 16 15 16 15 15 15 14 14 15 14 13 12 11 12 12 12 12 12 13 13 14 14 15 15 14 12 13 14 14 14 11 14
8 6 17 17 18 16 16 16 15 15 15 15 14 14 16 15 14 13 14 14 13 12 12 11 10 11 12 11 12 12 12 12 12 14 15 16 18 14 13 15 14 12 14
10 10 14 17 18 17 15 15 15 14 15 14 15 13 14 13 13 13 13 12 12 13 11 10 9 10 9 10 10 11 12 12 12 14 14 5 8 16 15 14 15 15 14
12 10 12 18 17 17 15 14 14 14 13 14 14 13 13 12 13 12 11 12 13 11 10 8 8 8 8 8 10 10 10 10 10 11 5 4 9 15 14 14 14 14 14
11 9 14 18 17 16 15 14 14 13 13 13 13 13 12 13 12 13 11 12 11 10 9 7 7 6 7 7 8 9 10 11 9 7 6 5 5 11 14 13 14 14 13
12 11 18 19 18 16 15 14 13 13 13 13 12 11 11 13 12 11 11 11 10 9 8 7 5 4 5 6 8 7 6 12 12 7 6 8 5 13 13 14 13 13 13
12 11 15 18 17 16 15 14 13 15 13 11 11 10 11 12 12 11 10 10 9 8 7 6 4 3 3 4 6 6 4 5 6 5 5 5 6 14 14 14 13 13 13
13 11 13 18 17 16 15 14 13 13 12 11 10 8 9 10 10 10 10 9 9 8 6 6 4 3 3 5 6 6 3 10 11 6 5 4 11 13 14 13 13 13 13
13 10 10 10 14 17 14 14 13 12 11 10 9 9 7 7 8 8 8 8 8 6 6 5 5 4 3 4 6 6 11 16 7 3 6 4 12 14 14 13 13 13 13
12 10 7 6 6 6 6 15 13 11 10 9 8 8 7 5 5 5 5 4 6 5 4 4 4 3 3 4 4 5 8 14 7 5 3 5 12 15 14 13 13 13 13
10 9 8 8 6 6 5 8 11 12 10 9 8 7 7 4 2 2 5 5 4 4 3 2 2 2 4 4 4 5 5 3 5 4 2 10 12 14 14 12 12 12 12
13 11 9 8 8 6 6 5 5 5 4 4 4 4 3 4 3 4 5 7 6 5 4 4 3 1 4 1 0 5 3 4 3 4 2 10 12 15 14 13 12 11 12
14 11 10 9 7 7 6 4 3 3 3 3 6 3 3 3 3 2 2 1 0 4 2 1 2 2 1 3 2 2 3 4 3 3 6 10 11 14 14 13 12 12 11
15 14 12 10 9 7 5 5 5 4 3 4 4 5 4 3 3 1 2 2 2 1 4 1 1 3 4 5 5 3 5 4 3 2 6 11 12 12 13 13 13 11 11
15 14 14 12 11 9 8 5 4 5 4 5 4 5 4 3 3 2 2 2 3 2 3 3 2 3 3 1 4 7 6 6 5 4 2 11 11 11 12 12 12 12 11
16 15 14 13 12 10 8 6 5 5 5 5 4 5 5 5 4 3 2 3 3 1 2 3 2 3 0 3 3 4 7 5 5 5 4 5 11 12 12 12 12 10 10
15 15 14 13 12 13 8 7 6 5 7 6 7 6 6 5 6 4 3 3 2 3 0 2 1 2 2 0 4 4 5 5 5 6 5 3 5 11 12 12 11 10 10
15 15 15 13 14 13 10 6 4 4 5 6 5 6 7 6 6 5 3 3 3 1 2 2 3 1 0 1 1 2 5 5 5 5 5 4 3 4 8 10 10 10 11
17 16 18 16 15 12 9 6 5 5 5 4 5 5 7 7 8 6 4 2 2 2 3 2 1 2 2 0 2 3 3 5 5 6 5 5 5 4 3 7 9 8 10
12 18 19 15 15 11 6 4 3 2 1 4 4 4 7 5 7 6 4 4 3 0 2 1 1 0 1 1 2 2 2 3 4 5 4 4 5 5 5 5 4 4 10
13 18 20 19 14 9 5 4 3 4 2 2 3 7 6 6 6 6 4 4 2 3 4 3 1 1 2 2 3 3 3 2 4 3 5 4 5 4 6 5 3 3 4
16 20 19 19 15 12 9 7 4 4 2 2 3 5 7 7 6 6 6 5 5 2 2 2 2 1 2 1 3 2 2 3 2 3 3 5 6 4 5 4 5 5 3
18 22 20 19 18 15 12 6 2 3 1 2 3 3 5 7 7 7 7 5 5 4 4 3 3 3 2 1 1 5 2 2 1 2 1 3 6 4 4 5 5 5 4
21 21 20 19 18 15 14 12 13 10 9 5 4 4 5 8 7 7 7 6 6 4 5 4 3 3 3 2 2 1 2 4 3 2 2 1 3 4 5 4 5 5 4
22 20 19 20 19 16 16 14 12 11 7 4 3 6 5 6 7 8 7 7 6 5 5 6 4 4 3 3 3 1 2 1 2 3 3 2 1 3 4 5 5 5 6
22 21 19 19 19 18 17 15 15 13 8 6 4 6 4 4 6 7 7 7 6 6 6 6 6 6 5 4 3 3 3 3 3 3 2 3 4 4 4 3 5 5 5
Wind_Direction
191 163 141 137 126 116 113 107 104 101 99 99 103 105 105 107 111 114 114 114 110 105 101 101 99 94 89 90 93 96 97 103 102 108 106 96 90 106 99 99 96 94 96
144 152 142 140 128 121 117 112 109 106 102 103 103 107 105 106 110 111 110 111 114 110 108 110 103 93 91 99 102 99 97 98 103 106 106 92 86 101 113 105 101 105 100
137 139 138 138 133 126 122 116 114 111 114 112 110 106 105 109 106 106 113 116 115 110 112 111 100 93 89 95 106 104 105 106 105 99 100 82 88 102 108 109 109 100 99
131 134 139 137 136 131 125 121 116 115 114 111 105 106 108 112 108 105 111 114 110 117 120 115 106 101 101 97 99 98 100 105 105 96 100 72 98 103 109 107 105 105 108
127 131 142 139 138 133 131 123 121 121 114 110 106 109 102 100 105 113 109 108 115 116 118 120 120 114 111 108 103 106 100 111 121 113 114 102 103 111 112 116 115 110 115
132 138 138 140 140 137 135 130 129 126 122 116 115 114 109 111 107 105 103 110 115 117 123 122 122 125 127 126 111 106 113 109 89 87 108 118 112 122 117 117 107 113 113
134 137 138 140 142 141 138 135 132 129 123 121 120 115 112 106 111 112 114 114 115 121 129 130 129 124 113 115 108 113 127 161 110 103 105 121 121 120 118 111 112 112 109
134 135 141 143 144 145 143 140 132 127 127 122 122 114 103 109 115 119 118 117 120 127 130 121 106 90 78 77 101 115 123 123 119 121 119 109 117 121 119 117 117 116 120
134 135 139 148 148 145 144 146 136 134 134 133 135 133 123 119 117 121 117 125 127 130 127 118 109 99 81 101 95 92 97 120 110 127 136 127 128 120 121 119 119 116 118
138 137 138 139 130 130 153 147 142 144 144 151 149 140 131 109 125 131 129 137 136 145 136 137 117 120 98 75 67 73 104 146 143 139 118 133 126 127 126 126 124 119 120
142 148 150 142 137 136 147 157 152 157 162 165 161 140 112 100 63 353 170 176 164 188 175 167 178 172 121 107 118 106 103 101 129 120 134 137 135 125 125 128 125 129 122
155 160 159 154 149 152 161 151 162 176 179 180 164 148 145 122 121 151 213 189 193 223 230 217 203 209 123 71 314 107 104 78 91 125 128 147 144 133 130 128 126 125 130
163 163 165 167 157 173 163 165 181 193 186 174 188 143 177 129 100 103 123 69 23 275 285 285 317 342 252 204 211 156 139 129 124 137 157 157 148 142 141 137 135 133 136
166 169 168 175 169 194 162 177 183 195 179 194 176 168 165 139 118 133 112 119 260 220 255 262 186 259 254 236 220 194 174 139 154 150 165 167 156 151 148 146 148 149 147
170 172 176 176 179 192 181 179 184 202 189 206 174 196 137 141 167 185 182 152 231 256 244 258 206 254 260 270 170 180 152 155 146 166 147 164 161 159 156 155 157 160 159
175 176 183 179 184 186 192 181 191 192 202 197 181 196 191 162 170 194 173 229 231 176 250 228 200 180 66 87 79 166 165 157 152 158 155 176 166 165 170 170 173 173 170
181 178 186 183 184 187 187 187 208 206 198 203 182 189 197 176 174 177 190 235 231 227 304 222 37 98 128 66 95 110 156 151 164 154 161 182 161 175 178 182 180 178 183
188 180 186 189 186 182 178 180 174 192 154 191 171 181 176 177 165 151 197 202 210 196 205 185 147 326 177 104 87 180 171 161 143 156 178 154 164 178 187 190 193 193 195
192 183 185 188 188 181 179 168 167 145 149 186 177 172 172 162 156 156 172 207 274 14 195 185 159 160 173 27 97 110 176 164 145 174 192 158 180 167 191 212 193 201 210
175 180 184 183 185 183 164 163 154 163 208 143 202 190 169 176 161 156 155 172 214 265 173 126 141 226 144 211 45 16 134 142 154 179 177 164 177 175 175 200 193 210 220
171 181 185 181 181 172 164 162 176 187 203 206 187 197 184 176 171 160 174 171 206 201 206 157 134 129 50 101 79 15 25 79 197 148 176 175 163 184 192 193 174 213 222
177 184 185 186 181 185 181 186 173 162 200 188 176 199 178 185 171 167 172 175 198 208 204 188 162 87 35 123 122 78 26 350 22 255 151 162 183 184 202 172 185 211 209
185 185 182 185 183 184 182 164 110 90 38 207 217 190 188 187 180 179 184 177 192 166 202 203 164 135 143 302 184 137 77 225 348 0 2 190 181 192 199 180 200 214 201
193 186 183 181 182 183 175 179 185 194 197 201 201 163 190 189 191 188 182 178 186 181 198 200 186 160 143 167 12 37 98 145 145 351 2 324 226 202 212 212 191 208 194
188 186 183 179 180 179 182 185 186 194 197 173 187 200 181 200 195 196 181 177 183 182 211 182 188 179 178 148 146 169 68 51 102 131 216 292 1 227 237 214 191 183 190
188 185 179 179 183 181 184 188 187 193 187 184 185 195 199 194 203 200 190 183 188 187 191 195 197 184 185 145 152 168 168 164 198 146 110 226 189 240 212 219 198 196 190